TimeCDT,TemperatureF,Dew PointF,Humidity,Sea Level PressureIn,VisibilityMPH,Wind Direction,Wind SpeedMPH,Gust SpeedMPH,PrecipitationIn,Events,Conditions,WindDirDegrees,DateUTC
12:55 AM,57.9,56.1,94,30.07,10.0,Calm,Calm,-,N/A,,Clear,0,2012-05-15 05:55:00
1:05 AM,57.2,55.4,94,30.07,10.0,North,3.5,-,N/A,,Light Drizzle,350,2012-05-15 06:05:00
1:14 AM,57.2,55.4,94,30.07,10.0,NNW,4.6,-,N/A,,Clear,340,2012-05-15 06:14:00
1:55 AM,60.6,56.7,87,30.07,10.0,NNW,4.6,-,0.00,,Clear,340,2012-05-15 06:55:00
2:55 AM,60.4,55.4,83,30.06,10.0,South,5.8,-,N/A,,Clear,190,2012-05-15 07:55:00
3:55 AM,54.5,54.3,99,30.06,10.0,SSW,3.5,-,N/A,,Clear,200,2012-05-15 08:55:00
4:55 AM,57.0,55.9,96,30.06,10.0,Calm,Calm,-,N/A,,Mostly Cloudy,0,2012-05-15 09:55:00
5:55 AM,54.5,54.5,100,30.08,10.0,Calm,Calm,-,N/A,,Mostly Cloudy,0,2012-05-15 10:55:00
6:55 AM,57.2,56.1,96,30.08,10.0,West,3.5,-,N/A,,Mostly Cloudy,260,2012-05-15 11:55:00
7:55 AM,59.2,56.8,92,30.10,10.0,West,4.6,-,N/A,,Partly Cloudy,260,2012-05-15 12:55:00
8:55 AM,64.2,57.0,77,30.11,10.0,Calm,Calm,-,N/A,,Clear,0,2012-05-15 13:55:00
9:55 AM,69.8,54.1,57,30.11,10.0,West,4.6,-,N/A,,Clear,280,2012-05-15 14:55:00
10:55 AM,75.7,50.2,41,30.09,10.0,WSW,4.6,-,N/A,,Clear,240,2012-05-15 15:55:00
11:55 AM,79.2,48.9,35,30.09,10.0,SW,4.6,-,N/A,,Clear,220,2012-05-15 16:55:00
12:55 PM,82.0,48.0,30,30.07,10.0,West,8.1,-,N/A,,Clear,260,2012-05-15 17:55:00
1:55 PM,84.2,45.1,25,30.04,10.0,West,8.1,-,N/A,,Clear,260,2012-05-15 18:55:00
2:55 PM,85.5,42.1,22,30.02,10.0,WSW,8.1,-,N/A,,Clear,250,2012-05-15 19:55:00
3:55 PM,85.5,42.8,22,30.01,10.0,Variable,3.5,-,N/A,,Clear,0,2012-05-15 20:55:00
4:55 PM,86.0,44.1,23,29.99,10.0,Variable,4.6,-,N/A,,Clear,0,2012-05-15 21:55:00
5:55 PM,86.9,44.8,23,29.97,10.0,North,3.5,-,N/A,,Clear,10,2012-05-15 22:55:00
6:55 PM,86.0,45.9,25,29.96,10.0,Variable,3.5,-,N/A,,Clear,0,2012-05-15 23:55:00
7:55 PM,84.0,47.7,28,29.96,10.0,Calm,Calm,-,N/A,,Clear,0,2012-05-16 00:55:00
8:55 PM,79.0,46.6,32,29.97,10.0,Calm,Calm,-,N/A,,Clear,0,2012-05-16 01:55:00
8:59 PM,78.8,48.2,34,29.97,10.0,Calm,Calm,-,N/A,,Clear,0,2012-05-16 01:59:00
9:55 PM,72.3,51.4,48,29.99,10.0,SSE,4.6,-,0.00,,Clear,150,2012-05-16 02:55:00
10:55 PM,68.2,48.0,48,30.01,10.0,Calm,Calm,-,N/A,,Clear,0,2012-05-16 03:55:00
11:55 PM,63.9,51.3,64,30.02,10.0,East,6.9,-,N/A,,Clear,100,2012-05-16 04:55:00